Time,TemperatureF,DewpointF,PressureIn,WindDirection,WindDirectionDegrees,WindSpeedMPH,WindSpeedGustMPH,Humidity,HourlyPrecipIn,Conditions,Clouds,dailyrainin,SoftwareType,DateUTC
2013-02-12 00:03:00,52.5,48.0,30.01,NE,50,10.0,-999.0,84,-99.99,,,0.00,weatherlink.com 1.10,2013-02-12 06:03:00,
2013-02-12 00:18:00,52.4,48.0,30.01,ENE,73,8.0,-999.0,85,-99.99,,,0.00,weatherlink.com 1.10,2013-02-12 06:18:00,
2013-02-12 00:33:00,52.5,48.0,30.00,ENE,73,9.0,-999.0,85,-99.99,,,0.00,weatherlink.com 1.10,2013-02-12 06:33:00,
2013-02-12 00:48:00,52.4,48.0,29.98,ENE,62,5.0,-999.0,85,-99.99,,,0.00,weatherlink.com 1.10,2013-02-12 06:48:00,
2013-02-12 01:03:00,52.3,48.0,29.98,ENE,73,8.0,-999.0,86,-99.99,,,0.00,weatherlink.com 1.10,2013-02-12 07:03:00,
2013-02-12 01:18:00,52.5,49.0,29.97,ENE,62,9.0,-999.0,86,-99.99,,,0.00,weatherlink.com 1.10,2013-02-12 07:18:00,
2013-02-12 01:33:00,52.6,49.0,29.97,ESE,105,9.0,-999.0,86,-99.99,,,0.00,weatherlink.com 1.10,2013-02-12 07:33:00,
2013-02-12 01:48:00,53.0,49.0,29.97,East,88,9.0,-999.0,86,-99.99,,,0.00,weatherlink.com 1.10,2013-02-12 07:48:00,
2013-02-12 02:03:00,52.9,49.0,29.97,ENE,58,3.0,-999.0,86,-99.99,,,0.00,weatherlink.com 1.10,2013-02-12 08:03:00,
2013-02-12 02:18:00,53.0,49.0,29.96,NE,47,6.0,-999.0,87,-99.99,,,0.00,weatherlink.com 1.10,2013-02-12 08:18:00,
2013-02-12 02:33:00,53.0,49.0,29.94,East,92,12.0,-999.0,87,-99.99,,,0.00,weatherlink.com 1.10,2013-02-12 08:33:00,
2013-02-12 02:48:00,53.0,50.0,29.95,East,87,6.0,-999.0,88,-99.99,,,0.00,weatherlink.com 1.10,2013-02-12 08:48:00,
2013-02-12 03:04:00,53.0,50.0,29.94,ENE,76,6.0,-999.0,88,-99.99,,,0.00,weatherlink.com 1.10,2013-02-12 09:04:00,
2013-02-12 03:19:00,53.1,50.0,29.93,NE,52,7.0,-999.0,88,-99.99,,,0.00,weatherlink.com 1.10,2013-02-12 09:19:00,
2013-02-12 03:34:00,53.1,50.0,29.92,NE,52,2.0,-999.0,89,-99.99,,,0.00,weatherlink.com 1.10,2013-02-12 09:34:00,
2013-02-12 03:49:00,53.1,50.0,29.92,ENE,62,5.0,-999.0,89,-99.99,,,0.01,weatherlink.com 1.10,2013-02-12 09:49:00,
2013-02-12 04:04:00,53.2,50.0,29.93,East,95,4.0,-999.0,90,-99.99,,,0.01,weatherlink.com 1.10,2013-02-12 10:04:00,
2013-02-12 04:19:00,53.2,50.0,29.91,ENE,77,4.0,-999.0,90,-99.99,,,0.01,weatherlink.com 1.10,2013-02-12 10:19:00,
2013-02-12 04:34:00,53.2,50.0,29.91,NE,56,3.0,-999.0,90,-99.99,,,0.01,weatherlink.com 1.10,2013-02-12 10:34:00,
2013-02-12 04:49:00,53.3,51.0,29.91,ENE,66,4.0,-999.0,90,-99.99,,,0.01,weatherlink.com 1.10,2013-02-12 10:49:00,
2013-02-12 05:04:00,53.3,51.0,29.90,East,81,3.0,-999.0,90,-99.99,,,0.01,weatherlink.com 1.10,2013-02-12 11:04:00,
2013-02-12 05:19:00,53.3,51.0,29.89,ENE,73,4.0,-999.0,91,-99.99,,,0.01,weatherlink.com 1.10,2013-02-12 11:19:00,
2013-02-12 05:34:00,53.3,51.0,29.87,ENE,64,3.0,-999.0,91,-99.99,,,0.01,weatherlink.com 1.10,2013-02-12 11:34:00,
2013-02-12 05:49:00,53.4,51.0,29.87,ENE,66,2.0,-999.0,91,-99.99,,,0.01,weatherlink.com 1.10,2013-02-12 11:49:00,
2013-02-12 06:04:00,53.4,51.0,29.88,NE,53,2.0,-999.0,91,-99.99,,,0.01,weatherlink.com 1.10,2013-02-12 12:04:00,
2013-02-12 06:19:00,53.6,51.0,29.87,NE,52,2.0,-999.0,92,-99.99,,,0.01,weatherlink.com 1.10,2013-02-12 12:19:00,
2013-02-12 06:34:00,53.6,51.0,29.87,ENE,71,1.0,-999.0,92,-99.99,,,0.01,weatherlink.com 1.10,2013-02-12 12:34:00,
2013-02-12 06:49:00,53.7,52.0,29.87,ENE,76,1.0,-999.0,92,-99.99,,,0.01,weatherlink.com 1.10,2013-02-12 12:49:00,
2013-02-12 07:04:00,53.7,52.0,29.86,ENE,73,2.0,-999.0,93,-99.99,,,0.01,weatherlink.com 1.10,2013-02-12 13:04:00,
2013-02-12 07:19:00,53.8,52.0,29.86,East,83,2.0,-999.0,93,-99.99,,,0.01,weatherlink.com 1.10,2013-02-12 13:19:00,
2013-02-12 07:34:00,53.9,52.0,29.86,ENE,62,1.0,-999.0,93,-99.99,,,0.01,weatherlink.com 1.10,2013-02-12 13:34:00,
2013-02-12 07:49:00,54.0,52.0,29.87,ENE,77,2.0,-999.0,93,-99.99,,,0.01,weatherlink.com 1.10,2013-02-12 13:49:00,
2013-02-12 08:04:00,54.2,52.0,29.88,ENE,64,0.0,-999.0,93,-99.99,,,0.01,weatherlink.com 1.10,2013-02-12 14:04:00,
2013-02-12 08:19:00,54.2,53.0,29.87,ENE,66,2.0,-999.0,94,-99.99,,,0.01,weatherlink.com 1.10,2013-02-12 14:19:00,
2013-02-12 08:34:00,54.3,53.0,29.88,ENE,57,1.0,-999.0,94,-99.99,,,0.01,weatherlink.com 1.10,2013-02-12 14:34:00,
2013-02-12 08:49:00,54.3,53.0,29.88,West,268,2.0,-999.0,95,-99.99,,,0.02,weatherlink.com 1.10,2013-02-12 14:49:00,
2013-02-12 09:04:00,54.3,53.0,29.88,West,272,0.0,-999.0,95,-99.99,,,0.02,weatherlink.com 1.10,2013-02-12 15:04:00,
2013-02-12 09:19:00,54.5,53.0,29.89,WNW,285,2.0,-999.0,95,-99.99,,,0.02,weatherlink.com 1.10,2013-02-12 15:19:00,
2013-02-12 09:34:00,54.8,53.0,29.87,NE,35,1.0,-999.0,95,-99.99,,,0.02,weatherlink.com 1.10,2013-02-12 15:34:00,
2013-02-12 09:49:00,55.0,54.0,29.88,North,355,1.0,-999.0,95,-99.99,,,0.02,weatherlink.com 1.10,2013-02-12 15:49:00,
2013-02-12 10:04:00,55.0,54.0,29.89,WNW,296,2.0,-999.0,95,-99.99,,,0.02,weatherlink.com 1.10,2013-02-12 16:04:00,
2013-02-12 10:19:00,55.3,54.0,29.89,WNW,296,2.0,-999.0,95,-99.99,,,0.02,weatherlink.com 1.10,2013-02-12 16:19:00,
2013-02-12 10:34:00,55.4,54.0,29.89,WNW,284,1.0,-999.0,95,-99.99,,,0.02,weatherlink.com 1.10,2013-02-12 16:34:00,
2013-02-12 10:49:00,55.5,54.0,29.89,WNW,282,1.0,-999.0,95,-99.99,,,0.02,weatherlink.com 1.10,2013-02-12 16:49:00,
2013-02-12 11:04:00,55.6,54.0,29.90,WNW,282,6.0,-999.0,95,-99.99,,,0.02,weatherlink.com 1.10,2013-02-12 17:04:00,
2013-02-12 11:19:00,55.5,54.0,29.91,West,268,5.0,-999.0,95,-99.99,,,0.02,weatherlink.com 1.10,2013-02-12 17:19:00,
2013-02-12 11:34:00,55.5,54.0,29.91,WNW,289,7.0,-999.0,95,-99.99,,,0.02,weatherlink.com 1.10,2013-02-12 17:34:00,
2013-02-12 11:49:00,55.4,54.0,29.90,WNW,287,4.0,-999.0,95,-99.99,,,0.02,weatherlink.com 1.10,2013-02-12 17:49:00,
2013-02-12 12:04:00,55.3,54.0,29.91,WNW,300,10.0,-999.0,94,-99.99,,,0.02,weatherlink.com 1.10,2013-02-12 18:04:00,
2013-02-12 12:19:00,55.1,54.0,29.90,WNW,301,8.0,-999.0,94,-99.99,,,0.02,weatherlink.com 1.10,2013-02-12 18:19:00,
2013-02-12 12:34:00,55.1,54.0,29.90,WNW,296,8.0,-999.0,94,-99.99,,,0.02,weatherlink.com 1.10,2013-02-12 18:34:00,
2013-02-12 12:49:00,55.1,54.0,29.89,NW,317,9.0,-999.0,94,-99.99,,,0.02,weatherlink.com 1.10,2013-02-12 18:49:00,
2013-02-12 13:04:00,55.4,54.0,29.89,NW,309,6.0,-999.0,93,-99.99,,,0.02,weatherlink.com 1.10,2013-02-12 19:04:00,
2013-02-12 13:19:00,56.2,53.0,29.88,NW,314,8.0,-999.0,90,-99.99,,,0.02,weatherlink.com 1.10,2013-02-12 19:19:00,
2013-02-12 13:34:00,56.5,53.0,29.87,WNW,296,6.0,-999.0,88,-99.99,,,0.02,weatherlink.com 1.10,2013-02-12 19:34:00,
2013-02-12 13:49:00,57.4,54.0,29.86,WNW,299,5.0,-999.0,87,-99.99,,,0.02,weatherlink.com 1.10,2013-02-12 19:49:00,
2013-02-12 14:05:00,58.1,55.0,29.86,WNW,298,6.0,-999.0,88,-99.99,,,0.02,weatherlink.com 1.10,2013-02-12 20:05:00,
2013-02-12 14:20:00,58.4,54.0,29.86,WNW,289,7.0,-999.0,85,-99.99,,,0.02,weatherlink.com 1.10,2013-02-12 20:20:00,
2013-02-12 14:35:00,58.7,54.0,29.86,NNW,343,11.0,-999.0,83,-99.99,,,0.02,weatherlink.com 1.10,2013-02-12 20:35:00,
2013-02-12 14:50:00,58.0,52.0,29.86,NW,308,11.0,-999.0,81,-99.99,,,0.02,weatherlink.com 1.10,2013-02-12 20:50:00,
2013-02-12 15:05:00,57.8,52.0,29.87,WNW,292,11.0,-999.0,81,-99.99,,,0.02,weatherlink.com 1.10,2013-02-12 21:05:00,
2013-02-12 15:20:00,57.3,52.0,29.86,WNW,290,10.0,-999.0,82,-99.99,,,0.02,weatherlink.com 1.10,2013-02-12 21:20:00,
2013-02-12 15:35:00,57.0,52.0,29.86,WNW,298,10.0,-999.0,83,-99.99,,,0.02,weatherlink.com 1.10,2013-02-12 21:35:00,
2013-02-12 15:50:00,57.4,52.0,29.86,NW,323,10.0,-999.0,83,-99.99,,,0.02,weatherlink.com 1.10,2013-02-12 21:50:00,
2013-02-12 16:05:00,57.5,51.0,29.86,NW,321,12.0,-999.0,80,-99.99,,,0.02,weatherlink.com 1.10,2013-02-12 22:05:00,
2013-02-12 16:20:00,57.4,52.0,29.86,NW,309,4.0,-999.0,81,-99.99,,,0.02,weatherlink.com 1.10,2013-02-12 22:20:00,
2013-02-12 16:35:00,57.8,51.0,29.85,NW,312,10.0,-999.0,79,-99.99,,,0.02,weatherlink.com 1.10,2013-02-12 22:35:00,
2013-02-12 16:50:00,57.6,51.0,29.86,NNW,334,9.0,-999.0,78,-99.99,,,0.02,weatherlink.com 1.10,2013-02-12 22:50:00,
2013-02-12 17:05:00,57.6,51.0,29.86,NNW,331,6.0,-999.0,79,-99.99,,,0.02,weatherlink.com 1.10,2013-02-12 23:05:00,
2013-02-12 17:20:00,57.9,51.0,29.86,NW,320,4.0,-999.0,79,-99.99,,,0.02,weatherlink.com 1.10,2013-02-12 23:20:00,
2013-02-12 17:35:00,57.3,51.0,29.88,NW,313,2.0,-999.0,80,-99.99,,,0.02,weatherlink.com 1.10,2013-02-12 23:35:00,
2013-02-12 17:50:00,57.1,51.0,29.88,NNW,332,6.0,-999.0,80,-99.99,,,0.02,weatherlink.com 1.10,2013-02-12 23:50:00,
2013-02-12 18:05:00,56.4,51.0,29.87,NNE,17,4.0,-999.0,82,-99.99,,,0.02,weatherlink.com 1.10,2013-02-13 00:05:00,
2013-02-12 18:20:00,55.6,51.0,29.87,NNE,17,4.0,-999.0,83,-99.99,,,0.02,weatherlink.com 1.10,2013-02-13 00:20:00,
2013-02-12 18:35:00,54.9,50.0,29.88,NNW,347,3.0,-999.0,84,-99.99,,,0.02,weatherlink.com 1.10,2013-02-13 00:35:00,
2013-02-12 18:50:00,54.5,50.0,29.89,NNW,327,2.0,-999.0,85,-99.99,,,0.02,weatherlink.com 1.10,2013-02-13 00:50:00,
2013-02-12 19:05:00,54.3,50.0,29.90,NNW,341,2.0,-999.0,85,-99.99,,,0.02,weatherlink.com 1.10,2013-02-13 01:05:00,
2013-02-12 19:20:00,53.6,50.0,29.91,NNW,341,1.0,-999.0,86,-99.99,,,0.02,weatherlink.com 1.10,2013-02-13 01:20:00,
2013-02-12 19:35:00,52.7,49.0,29.92,NNW,340,0.0,-999.0,86,-99.99,,,0.02,weatherlink.com 1.10,2013-02-13 01:35:00,
2013-02-12 19:50:00,52.2,49.0,29.92,NNW,341,2.0,-999.0,89,-99.99,,,0.02,weatherlink.com 1.10,2013-02-13 01:50:00,
2013-02-12 20:05:00,52.5,49.0,29.93,NNW,341,0.0,-999.0,88,-99.99,,,0.02,weatherlink.com 1.10,2013-02-13 02:05:00,
2013-02-12 20:20:00,51.8,49.0,29.94,NNW,341,0.0,-999.0,89,-99.99,,,0.02,weatherlink.com 1.10,2013-02-13 02:20:00,
2013-02-12 20:35:00,51.6,49.0,29.95,NNW,330,2.0,-999.0,90,-99.99,,,0.02,weatherlink.com 1.10,2013-02-13 02:35:00,
2013-02-12 20:50:00,51.7,49.0,29.95,NW,321,2.0,-999.0,89,-99.99,,,0.02,weatherlink.com 1.10,2013-02-13 02:50:00,
2013-02-12 21:05:00,51.6,49.0,29.96,NW,316,1.0,-999.0,89,-99.99,,,0.02,weatherlink.com 1.10,2013-02-13 03:05:00,
2013-02-12 21:20:00,51.7,49.0,29.96,NW,324,2.0,-999.0,89,-99.99,,,0.02,weatherlink.com 1.10,2013-02-13 03:20:00,
2013-02-12 21:35:00,51.8,48.0,29.97,NW,316,5.0,-999.0,88,-99.99,,,0.02,weatherlink.com 1.10,2013-02-13 03:35:00,
2013-02-12 21:50:00,52.0,48.0,29.97,NNW,329,3.0,-999.0,86,-99.99,,,0.02,weatherlink.com 1.10,2013-02-13 03:50:00,
2013-02-12 22:06:00,52.3,47.0,29.98,NW,317,9.0,-999.0,81,-99.99,,,0.02,weatherlink.com 1.10,2013-02-13 04:06:00,
2013-02-12 22:21:00,52.1,46.0,29.98,NW,308,7.0,-999.0,79,-99.99,,,0.02,weatherlink.com 1.10,2013-02-13 04:21:00,
2013-02-12 22:36:00,51.8,45.0,29.99,WNW,296,10.0,-999.0,77,-99.99,,,0.02,weatherlink.com 1.10,2013-02-13 04:36:00,
2013-02-12 22:51:00,51.6,45.0,30.00,NW,306,13.0,-999.0,78,-99.99,,,0.02,weatherlink.com 1.10,2013-02-13 04:51:00,
2013-02-12 23:06:00,51.4,44.0,29.99,NW,309,13.0,-999.0,77,-99.99,,,0.02,weatherlink.com 1.10,2013-02-13 05:06:00,
2013-02-12 23:21:00,50.9,45.0,29.99,NW,313,7.0,-999.0,79,-99.99,,,0.02,weatherlink.com 1.10,2013-02-13 05:21:00,
2013-02-12 23:36:00,50.4,45.0,30.00,NW,305,14.0,-999.0,81,-99.99,,,0.02,weatherlink.com 1.10,2013-02-13 05:36:00,
2013-02-12 23:51:00,50.1,45.0,30.01,NW,309,10.0,-999.0,81,-99.99,,,0.02,weatherlink.com 1.10,2013-02-13 05:51:00,